Powrót do katalogu

STARLINK-1577

AktywnyŁącznośćVLEO
NORAD 46063·PAYLOAD·🇺🇸 United States

Wystrzelony Aug 7, 2020 z Cape Canaveral Space Force Station

Loading…

Następne Przeloty (najbliższe 24 godziny)

TLE

ŚwieżeSource: CelesTrak SupGP

Epoka: Sep 14, 2026, 20:10 UTC

1 46063C 20055AN  26257.84076389 -.00032901  00000+0 -10578-2 0  2574
2 46063  53.1570 313.6117 0001222  90.7176 192.7379 15.31723530    10

Śledź STARLINK-1577 w czasie rzeczywistym z AllMySat

Download on the App Store